#timestamp,LO_Frequency,Hit 
1498636815.2,286046950.9,N
1498636835.0,286046951.2,N
1498636835.9,286046951.2,N
1498636855.7,286046951.3,N
1498636875.6,286046951.6,N
1498636895.4,286046951.4,N
1498636915.2,286046948.6,N
1498636935.1,286046949.8,N
1498636936.0,286046949.8,N
1498636955.8,286046949.6,N
1498636975.6,286046949.3,N
1498636995.5,286046949.6,N
1498637015.3,286046951.0,N
1498637035.1,286046950.7,N
1498637055.8,286046950.3,N
1498637075.7,286046953.2,N
1498637095.5,286046950.8,N
1498637115.3,286046946.9,N
1498637135.2,286046945.3,N
1498637155.0,286046947.6,N
1498637155.9,286046947.6,N
1498637175.7,286046946.9,N
1498637195.6,286046945.7,N
1498637215.4,286046945.7,N
1498637235.2,286046949.1,N
1498637255.1,286046949.0,N
1498637256.0,286046949.0,N
1498637275.8,286046945.3,N
1498637295.6,286046947.7,N
1498637315.5,286046949.5,N
1498637335.3,286046948.5,N
1498637355.1,286046949.9,N
1498637375.9,286046948.2,N
1498637395.7,286046947.9,N
1498637415.5,286046945.9,N
1498637435.4,286046946.1,N
1498637455.2,286046945.5,N
1498637475.0,286046948.3,N
1498637475.9,286046948.3,N
1498637495.8,286046945.9,N
1498637515.6,286046944.0,N
1498637535.4,286046942.7,N
1498637555.2,286046943.0,N
1498637575.1,286046942.6,N
1498637576.0,286046942.6,N
1498637595.8,286046946.3,N
1498637615.6,286046945.4,N
1498637635.5,286046948.3,N
1498637655.3,286046947.2,N
1498637675.1,286046947.1,N
1498637695.9,286046945.7,N
1498637715.7,286046948.3,N
1498637735.5,286046948.4,N
1498637755.4,286046945.6,N
1498637775.2,286046945.0,N
1498637795.0,286046942.9,N
1498637795.9,286046942.9,N
1498637815.8,286046945.1,N
1498637835.6,286046944.9,N
1498637855.4,286046944.1,N
1498637875.2,286046942.9,N
1498637895.1,286046945.2,N
1498637896.0,286046945.2,N
1498637915.8,286046945.1,N
1498637935.6,286046944.6,N
1498637955.5,286046944.7,N
1498637975.3,286046945.1,N
1498637995.1,286046942.7,N
1498638015.9,286046942.7,N
1498638035.7,286046940.9,N
1498638055.5,286046941.9,N
1498638075.4,286046941.3,N
1498638095.2,286046943.3,N
1498638115.0,286046945.0,N
1498638115.9,286046945.0,N
1498638135.8,286046944.4,N
1498638155.6,286046942.8,N
1498638175.4,286046943.6,N
1498638195.2,286046942.8,N
1498638215.1,286046942.9,N
1498638216.0,286046942.9,N
1498638235.8,286046943.2,N
1498638255.6,286046940.6,N
1498638275.5,286046942.7,N
1498638295.3,286046944.8,N
1498638315.1,286046945.0,N
1498638335.9,286046943.3,N
1498638355.7,286046943.6,N
1498638375.5,286046940.5,N
1498638395.4,286046943.5,N
1498638415.2,286046943.0,N
1498638435.0,286046943.2,N
1498638435.9,286046943.2,N
1498638455.8,286046942.3,N
1498638475.6,286046943.1,N
1498638495.4,286046940.8,N
1498638515.3,286046943.2,N
1498638535.1,286046940.5,N
1498638536.0,286046940.5,N
1498638555.8,286046943.6,N
1498638575.6,286046941.1,N
1498638595.5,286046941.2,N
1498638615.3,286046939.4,N
1498638635.1,286046939.5,N
1498638655.9,286046940.4,N
1498638675.7,286046937.3,N
1498638695.5,286046940.2,N
1498638715.4,286046937.9,N
1498638735.2,286046935.7,N
1498638755.0,286046935.7,N
1498638755.9,286046935.7,N
1498638775.8,286046937.2,N
1498638795.6,286046934.9,N
1498638815.4,286046937.1,N
1498638835.3,286046937.0,N
1498638855.1,286046935.0,N
1498638856.0,286046935.0,N
1498638875.8,286046933.4,N
1498638895.6,286046933.5,N
1498638915.5,286046934.7,N
1498638935.3,286046938.4,N
1498638955.1,286046938.6,N
1498638975.9,286046938.5,N
1498638995.7,286046936.0,N
1498639015.5,286046936.8,N
1498639035.4,286046935.9,N
1498639055.2,286046935.9,N
1498639075.0,286046935.1,N
1498639075.9,286046935.1,N
1498639095.8,286046933.9,N
1498639115.6,286046931.4,N
1498639135.4,286046931.0,N
1498639155.3,286046933.5,N
1498639175.1,286046929.3,N
1498639176.0,286046929.3,N
1498639195.8,286046929.4,N
1498639215.6,286046931.3,N
1498639235.5,286046932.9,N
1498639255.3,286046933.1,N
1498639275.1,286046932.8,N
1498639295.9,286046930.9,N
1498639315.7,286046930.4,N
1498639335.5,286046929.6,N
1498639355.4,286046929.6,N
1498639375.2,286046929.5,N
1498639395.0,286046930.1,N
1498639395.9,286046930.1,N
1498639415.8,286046929.3,N
1498639435.6,286046931.6,N
1498639455.4,286046929.4,N
1498639475.3,286046932.0,N
1498639495.1,286046932.0,N
1498639496.0,286046932.0,N
1498639515.8,286046931.8,N
1498639535.6,286046929.7,N
1498639555.5,286046929.7,N
1498639575.3,286046930.6,N
1498639595.1,286046930.3,N
1498639615.9,286046927.7,N
1498639635.7,286046928.4,N
1498639655.5,286046930.3,N
1498639675.4,286046930.2,N
1498639695.2,286046930.6,N
1498639715.0,286046928.2,N
1498639715.9,286046928.2,N
1498639735.8,286046928.6,N
1498639755.6,286046929.2,N
1498639775.4,286046926.9,N
1498639795.3,286046927.2,N
1498639815.1,286046925.0,N
1498639816.0,286046925.0,N
1498639835.8,286046924.9,N
1498639855.7,286046928.9,N
1498639875.5,286046927.8,N
1498639895.3,286046927.5,N
1498639915.1,286046924.8,N
1498639935.9,286046926.6,N
1498639955.7,286046925.0,N
1498639975.5,286046925.1,N
1498639995.4,286046925.1,N
1498640015.2,286046927.1,N
1498640035.0,286046927.3,N
1498640035.9,286046927.3,N
1498640055.8,286046924.5,N
1498640075.6,286046929.2,N
1498640095.4,286046925.3,N
1498640115.3,286046925.8,N
1498640135.1,286046924.8,N
1498640136.0,286046924.8,N
1498640155.8,286046925.8,N
1498640175.7,286046925.6,N
1498640195.5,286046923.6,N
1498640215.3,286046925.9,N
1498640235.2,286046924.5,N
1498640255.9,286046926.6,N
1498640275.7,286046929.1,N
1498640295.5,286046929.2,N
1498640315.4,286046928.6,N
1498640335.2,286046928.7,N
1498640355.0,286046929.1,N
1498640355.9,286046929.1,N
1498640375.8,286046926.7,N
1498640395.6,286046925.1,N
